[[{"header":{"parameterUnit":"m.s-1","parameterCategory":1,"la1":30.2991,"la2":30.254,"lo1":-89.0895,"lo2":-89.0444,"dy":0.0017,"dx":0.0017,"nx":28,"ny":28,"refTime":"2024-12-12T09:00:00:Z","depth":0,"parameterNumber":2,"parameterNumberName":"U-component_of_WINDS"},"data":[0,0,0,0,0,0,0,0,0,0,0,0,0,0,0,0,0,0,0,0,0,0,0,0,0,0,0,0,0,0,0,0,0,0,0,0,0,0,0,0,0,0,0,0,0,0,0,0,0,0,0,0,0,0,0,0,0,0,-4.1219,-4.1219,0,-4.1195,-4.1195,-4.1195,-4.1012,-4.1007,-4.1003,-4.0998,-4.0975,-4.0979,-4.0982,0,0,0,0,0,0,0,0,0,0,0,0,0,-4.1108,-4.1111,-4.1219,-4.1219,-4.1219,-4.1195,-4.1195,-4.1194,-4.1012,-4.1007,-4.1002,-4.0996,-4.0974,-4.0978,-4.0983,0,0,0,0,0,0,0,0,0,0,0,0,0,-4.1128,-4.1112,-4.1219,-4.1125,-4.1116,-4.1195,-4.1195,-4.1194,-4.1014,-4.1007,-4.1,-4.0994,-4.0973,-4.0978,-4.0983,-4.1151,0,0,-4.1,-4.1002,0,0,0,0,0,0,0,0,-4.1127,-4.1132,-4.1139,-4.1132,-4.1122,-4.1099,-4.1147,-4.118,-4.1015,-4.1053,-4.0998,-4.099,-4.1022,-4.1023,-4.1033,-4.115,-4.1149,-4.1,-4.1003,-4.1006,-4.1007,0,0,0,0,0,0,0,-4.1126,-4.1132,-4.121,-4.1139,-4.1129,-4.1084,-4.1079,-4.1152,-4.1076,-4.1049,-4.1036,-4.1035,-4.1016,-4.1029,-4.1031,-4.1149,-4.1,-4.1005,-4.1008,-4.101,-4.1401,-4.1408,0,0,0,0,0,0,-4.1138,-4.1132,-4.121,-4.1209,-4.1108,-4.1092,-4.1086,-4.1114,-4.1074,-4.1062,-4.1041,-4.1027,-4.1023,-4.1025,-4.103,-4.1223,-4.1006,-4.1011,-4.1014,-4.1394,-4.1403,-4.1411,0,0,0,0,0,0,-4.1136,-4.1146,-4.1211,-4.1167,-4.1172,-4.1101,-4.1133,-4.1117,-4.1129,-4.1068,-4.1054,-4.1068,-4.1018,-4.1022,-4.1122,-4.1219,-4.1013,-4.1018,-4.1386,-4.1397,-4.1407,-4.1611,0,0,0,0,0,0,-4.1134,-4.1147,-4.121,-4.117,-4.1175,-4.1304,-4.1139,-4.1121,-4.1138,-4.1119,-4.1089,-4.1078,-4.1013,-4.1115,-4.1128,-4.1223,-4.1022,-4.1377,-4.1391,-4.1403,-4.1596,-4.1628,-4.1655,0,0,0,0,0,-4.113,-4.1269,-4.1214,-4.1224,-4.1252,-4.131,-4.1313,-4.1235,-4.1147,-4.1209,-4.1171,-4.1079,-4.1208,-4.1127,-4.1139,-4.1238,-4.137,-4.1387,-4.1402,-4.1582,-4.1621,-4.1655,0,0,0,0,0,0,-4.1323,-4.1262,-4.12,-4.133,-4.1327,-4.1279,-4.1356,-4.1279,-4.1301,-4.1282,-4.1184,-4.1179,-4.1294,-4.1276,-4.1187,-4.1398,-4.1273,-4.1292,-4.1405,-4.1442,-4.1472,-4.1473,-4.1027,0,0,0,0,0,-4.138,-4.1432,-4.1376,-4.1496,-4.1498,-4.1428,-4.145,-4.139,-4.1383,-4.138,-4.1349,-4.1346,-4.1385,-4.1413,-4.1446,-4.1593,-4.1583,-4.1667,-4.1697,-4.1722,-4.1739,-4.1815,-4.1851,-4.1464,-4.1464,-4.1463,0,0,-4.15,-4.1473,-4.1512,-4.1534,-4.1524,-4.1581,-4.1428,-4.1494,-4.1534,-4.139,-4.1482,-4.1459,-4.1449,-4.1573,-4.1626,-4.1562,-4.1844,-4.1742,-4.1763,-4.1766,-4.1835,-4.1872,-4.1904,-4.1475,-4.1473,-4.1471,0,0,-4.1745,-4.1731,-4.1828,-4.1822,-4.1809,-4.1761,-4.1785,-4.1749,-4.1728,-4.1819,-4.1712,-4.1759,-4.1829,-4.1826,-4.1834,-4.2079,-4.1995,-4.2093,-4.2248,-4.2323,-4.2354,-4.238,-4.2466,-4.2499,-4.2111,-4.2111,-4.2112,0,-4.1895,-4.1975,-4.1888,-4.1961,-4.1974,-4.1846,-4.1944,-4.1942,-4.1942,-4.1953,-4.1881,-4.1966,-4.1951,-4.2071,-4.2131,-4.2142,-4.2166,-4.2095,-4.2356,-4.2382,-4.2405,-4.2487,-4.2519,-4.2123,-4.2122,-4.2121,-4.2119,0,-4.2159,-4.2216,-4.2297,-4.2298,-4.232,-4.2406,-4.2332,-4.2365,-4.2304,-4.2264,-4.2358,-4.2335,-4.236,-4.2385,-4.2326,-4.2498,-4.2458,-4.2373,-4.2245,-4.2456,-4.253,-4.2561,-4.214,-4.2136,-4.2132,-4.2129,0,0,-4.2524,-4.2477,-4.2507,-4.2506,-4.2483,-4.2525,-4.2605,-4.2629,-4.2659,-4.2663,-4.2727,-4.279,-4.271,-4.272,-4.2659,-4.2725,-4.292,-4.2631,-4.2629,-4.2684,-4.3106,-4.3169,-4.3207,-4.2865,-4.287,-4.2875,-4.3107,0,-4.2758,-4.289,-4.2815,-4.2958,-4.301,-4.289,-4.2959,-4.2952,-4.2918,-4.2957,-4.2918,-4.2964,-4.2857,-4.2861,-4.2921,-4.2883,-4.3003,-4.2866,-4.2923,-4.2926,-4.2927,-4.3246,-4.3312,-4.3533,-4.3135,-4.314,-4.3144,0,-4.3049,-4.3065,-4.3213,-4.3179,-4.3198,-4.3261,-4.3277,-4.3316,-4.3306,-4.3276,-4.3287,-4.3211,-4.3287,-4.3162,-4.3265,-4.3173,-4.3192,-4.3178,-4.3184,-4.3185,-4.3046,-4.3254,-4.3601,-4.3634,-4.3189,-4.3186,-4.3182,0,-4.3299,-4.3357,-4.3452,-4.3455,-4.3419,-4.3466,-4.3453,-4.3437,-4.3456,-4.3471,-4.3482,-4.3507,-4.3519,-4.354,-4.3472,-4.3388,-4.3584,-4.3454,-4.3561,-4.3563,-4.3606,-4.3604,-4.396,-4.3623,-4.3622,-4.3621,-4.3621,0,-4.3567,-4.3662,-4.3564,-4.3623,-4.3725,-4.3639,-4.3743,-4.3717,-4.3704,-4.3756,-4.3655,-4.3706,-4.3614,-4.3656,-4.3604,-4.3696,-4.3703,-4.3681,-4.3666,-4.3689,-4.3692,-4.3699,-4.3681,-4.363,-4.3628,-4.3626,-4.3625,0,-4.3862,-4.38,-4.3896,-4.3854,-4.3845,-4.3923,-4.3886,-4.3939,-4.3898,-4.3965,-4.3976,-4.3912,-4.3956,-4.3891,-4.3928,-4.3893,-4.4021,-4.3983,-4.4024,-4.4012,-4.4122,-4.4113,-4.4494,-4.4539,-4.4175,-4.4178,-4.4181,0,-4.4036,-4.4106,-4.4071,-4.4098,-4.4091,-4.4136,-4.4155,-4.4073,-4.4097,-4.4092,-4.4146,-4.4181,-4.4205,-4.4281,-4.4238,-4.4266,-4.4227,-4.4359,-4.4231,-4.4252,-4.4227,-4.4223,-4.423,-4.4385,-4.4389,-4.4393,-4.4396,0,-4.4352,-4.4318,-4.4349,-4.437,-4.4395,-4.4408,-4.4413,-4.4442,-4.4355,-4.4388,-4.4431,-4.445,-4.4487,-4.4524,-4.4541,-4.4528,-4.4448,-4.4437,-4.4463,-4.4487,-4.4507,-4.4496,-4.4093,-4.4428,-4.4425,-4.4422,-4.4421,-4.4419,-4.459,-4.4646,-4.463,-4.4668,-4.4664,-4.4671,-4.4718,-4.4683,-4.4717,-4.4741,-4.4691,-4.4747,-4.4736,-4.475,-4.4746,-4.4789,-4.4731,-4.477,-4.4779,-4.4789,-4.4806,-4.4502,-4.4792,-4.4791,-4.479,-4.4789,-4.4789,0,-4.4899,-4.4883,-4.4919,-4.4929,-4.4959,-4.4881,-4.4883,-4.4913,-4.4963,-4.4959,-4.4985,-4.5035,-4.507,-4.5031,-4.5058,-4.51,-4.5064,-4.511,-4.5105,-4.5103,-4.4856,-4.483,-4.5139,-4.5139,-4.5138,-4.5138,-4.5138,-4.5138,-4.5063,-4.5153,-4.5118,-4.5205,-4.5188,-4.5241,-4.5249,-4.5255,-4.5251,-4.5312,-4.534,-4.5314,-4.5296,-4.5321,-4.535,-4.5338,-4.5352,-4.5411,-4.5386,-4.5155,-4.5121,-4.5088,-4.5063,-4.5415,-4.5415,-4.5628,-4.563,-4.5632]},{"header":{"parameterUnit":"m.s-1","parameterCategory":1,"la1":30.2991,"la2":30.254,"lo1":-89.0895,"lo2":-89.0444,"dy":0.0017,"dx":0.0017,"nx":28,"ny":28,"refTime":"2024-12-12T09:00:00:Z","depth":0,"parameterNumber":3,"parameterNumberName":"V-component_of_WINDS"},"data":[0,0,0,0,0,0,0,0,0,0,0,0,0,0,0,0,0,0,0,0,0,0,0,0,0,0,0,0,0,0,0,0,0,0,0,0,0,0,0,0,0,0,0,0,0,0,0,0,0,0,0,0,0,0,0,0,0,0,-0.5663,-0.5664,0,-0.5785,-0.5787,-0.5788,-0.5876,-0.5877,-0.5877,-0.5878,-0.6005,-0.6007,-0.601,0,0,0,0,0,0,0,0,0,0,0,0,0,-0.5503,-0.5506,-0.5662,-0.5664,-0.5665,-0.5785,-0.5787,-0.5788,-0.5876,-0.5877,-0.5878,-0.5878,-0.6004,-0.6007,-0.601,0,0,0,0,0,0,0,0,0,0,0,0,0,-0.5594,-0.5507,-0.5662,-0.5723,-0.573,-0.5785,-0.5787,-0.5789,-0.5876,-0.5877,-0.5878,-0.5879,-0.6003,-0.6007,-0.6011,-0.6014,0,0,-0.6023,-0.6025,0,0,0,0,0,0,0,0,-0.5589,-0.56,-0.5713,-0.5719,-0.5727,-0.5816,-0.5777,-0.5865,-0.5875,-0.582,-0.5878,-0.5879,-0.5941,-0.595,-0.5971,-0.602,-0.6026,-0.6023,-0.6026,-0.6028,-0.6029,0,0,0,0,0,0,0,-0.5582,-0.5595,-0.5711,-0.5714,-0.5723,-0.5745,-0.5759,-0.5794,-0.5873,-0.5825,-0.5832,-0.5845,-0.5945,-0.5967,-0.5975,-0.6028,-0.6023,-0.6027,-0.6029,-0.6031,-0.6084,-0.6083,0,0,0,0,0,0,-0.5566,-0.5589,-0.5707,-0.5715,-0.5659,-0.5747,-0.5763,-0.5787,-0.5873,-0.5887,-0.5844,-0.5849,-0.596,-0.597,-0.598,-0.5989,-0.6028,-0.6031,-0.6034,-0.6085,-0.6084,-0.6083,0,0,0,0,0,0,-0.5563,-0.5576,-0.5702,-0.5654,-0.5672,-0.5748,-0.5775,-0.5788,-0.581,-0.5888,-0.5902,-0.5852,-0.5961,-0.5974,-0.6005,-0.5994,-0.6033,-0.6037,-0.6086,-0.6085,-0.6083,-0.6007,0,0,0,0,0,0,-0.5558,-0.5574,-0.5577,-0.5653,-0.5674,-0.5725,-0.5774,-0.579,-0.5817,-0.5824,-0.5899,-0.5912,-0.5963,-0.5998,-0.6009,-0.6001,-0.604,-0.6088,-0.6086,-0.6084,-0.6011,-0.6003,-0.5996,0,0,0,0,0,-0.5552,-0.5551,-0.5576,-0.559,-0.5678,-0.5724,-0.5736,-0.5794,-0.5816,-0.5819,-0.5868,-0.591,-0.5993,-0.6,-0.6013,-0.6006,-0.6089,-0.6086,-0.6084,-0.6014,-0.6004,-0.5996,0,0,0,0,0,0,-0.5472,-0.5562,-0.5591,-0.5615,-0.5661,-0.5739,-0.5745,-0.5783,-0.5824,-0.5829,-0.59,-0.5916,-0.5939,-0.5976,-0.5982,-0.6013,-0.6046,-0.6046,-0.5988,-0.598,-0.5973,-0.5964,-0.6043,0,0,0,0,0,-0.5456,-0.5486,-0.5564,-0.5577,-0.5599,-0.5667,-0.569,-0.573,-0.5781,-0.5801,-0.5853,-0.5901,-0.5938,-0.5961,-0.6,-0.6016,-0.6033,-0.6018,-0.601,-0.6004,-0.6003,-0.6013,-0.6007,-0.6075,-0.6075,-0.6075,0,0,-0.5426,-0.5479,-0.5494,-0.5562,-0.5603,-0.5632,-0.5683,-0.5712,-0.5734,-0.5806,-0.5838,-0.5877,-0.5935,-0.5958,-0.5971,-0.599,-0.5988,-0.6001,-0.5995,-0.5998,-0.601,-0.6004,-0.5998,-0.6074,-0.6074,-0.6074,0,0,-0.5385,-0.5429,-0.5444,-0.5483,-0.5544,-0.5589,-0.5592,-0.5664,-0.5693,-0.5726,-0.578,-0.5807,-0.587,-0.5909,-0.5936,-0.5908,-0.5947,-0.5918,-0.5881,-0.589,-0.5884,-0.588,-0.5869,-0.5864,-0.5917,-0.5917,-0.5917,0,-0.534,-0.5386,-0.5447,-0.5472,-0.55,-0.5565,-0.5581,-0.5616,-0.5686,-0.5704,-0.5724,-0.5803,-0.5847,-0.5879,-0.5872,-0.5893,-0.5898,-0.5911,-0.588,-0.5876,-0.5873,-0.5863,-0.5859,-0.5913,-0.5914,-0.5914,-0.5915,0,-0.5326,-0.5357,-0.5362,-0.5427,-0.5456,-0.5476,-0.554,-0.5562,-0.5599,-0.5642,-0.5674,-0.5729,-0.5779,-0.5789,-0.5827,-0.5827,-0.5836,-0.5867,-0.5901,-0.5862,-0.5854,-0.5851,-0.5908,-0.5909,-0.591,-0.5911,0,0,-0.524,-0.5337,-0.5338,-0.5367,-0.5438,-0.5463,-0.5485,-0.5534,-0.555,-0.5596,-0.5616,-0.5667,-0.5696,-0.5727,-0.5769,-0.5777,-0.575,-0.5807,-0.581,-0.5794,-0.5752,-0.5728,-0.5722,-0.5776,-0.5776,-0.5775,-0.5747,0,-0.521,-0.5254,-0.5308,-0.5334,-0.5362,-0.5423,-0.5443,-0.5488,-0.5528,-0.5558,-0.5603,-0.5638,-0.5673,-0.5692,-0.5703,-0.5751,-0.5742,-0.5754,-0.5795,-0.5796,-0.5779,-0.5719,-0.5694,-0.5664,-0.5744,-0.5743,-0.5743,0,-0.5181,-0.5222,-0.5249,-0.5316,-0.533,-0.5346,-0.5394,-0.5422,-0.5474,-0.5503,-0.5537,-0.5582,-0.5608,-0.5638,-0.5676,-0.5682,-0.5702,-0.5728,-0.5729,-0.5735,-0.5767,-0.5722,-0.5656,-0.5651,-0.5739,-0.5739,-0.574,0,-0.5113,-0.5176,-0.52,-0.5223,-0.5302,-0.5312,-0.5345,-0.5398,-0.5423,-0.5465,-0.5482,-0.5526,-0.555,-0.5583,-0.5639,-0.5656,-0.5669,-0.5705,-0.5694,-0.5692,-0.5694,-0.5693,-0.5629,-0.5707,-0.5707,-0.5707,-0.5707,0,-0.5074,-0.5088,-0.5171,-0.5185,-0.5203,-0.5265,-0.5281,-0.532,-0.5366,-0.5389,-0.5445,-0.5466,-0.5538,-0.5567,-0.561,-0.5634,-0.5644,-0.5668,-0.5679,-0.5663,-0.566,-0.5677,-0.568,-0.5706,-0.5706,-0.5707,-0.5707,0,-0.5002,-0.5058,-0.5088,-0.5159,-0.5177,-0.5187,-0.5248,-0.5264,-0.5307,-0.5336,-0.5346,-0.5413,-0.545,-0.5509,-0.5563,-0.5592,-0.5608,-0.5627,-0.559,-0.5596,-0.5582,-0.5582,-0.5527,-0.5522,-0.5603,-0.5602,-0.5601,0,-0.4973,-0.4985,-0.5057,-0.5076,-0.5107,-0.5137,-0.5162,-0.5224,-0.5248,-0.5307,-0.5316,-0.5357,-0.5393,-0.5448,-0.5502,-0.5544,-0.5564,-0.5542,-0.5571,-0.5553,-0.5563,-0.5561,-0.5562,-0.5535,-0.5534,-0.5533,-0.5532,0,-0.4914,-0.4941,-0.4975,-0.5018,-0.5046,-0.5084,-0.5124,-0.5136,-0.5207,-0.5231,-0.5268,-0.5296,-0.535,-0.539,-0.5439,-0.5473,-0.5514,-0.5522,-0.5522,-0.5505,-0.5482,-0.5494,-0.5571,-0.5523,-0.5524,-0.5525,-0.5525,-0.5526,-0.4863,-0.4876,-0.4928,-0.4964,-0.5,-0.5035,-0.5054,-0.5098,-0.5131,-0.5179,-0.5214,-0.5249,-0.5299,-0.5369,-0.54,-0.5429,-0.5447,-0.5446,-0.5446,-0.5445,-0.5438,-0.5478,-0.5438,-0.5438,-0.5439,-0.5439,-0.5439,0,-0.4807,-0.4843,-0.4875,-0.4928,-0.4956,-0.4991,-0.5037,-0.5058,-0.5088,-0.5131,-0.5165,-0.5207,-0.5245,-0.5301,-0.5344,-0.5356,-0.5375,-0.5365,-0.5364,-0.5371,-0.542,-0.5416,-0.5348,-0.5348,-0.5348,-0.5348,-0.5348,-0.5348,-0.4781,-0.4805,-0.4837,-0.4879,-0.4915,-0.4949,-0.4972,-0.5005,-0.5039,-0.5084,-0.5116,-0.5152,-0.52,-0.5246,-0.5282,-0.5298,-0.5311,-0.5294,-0.5315,-0.536,-0.5368,-0.5376,-0.5372,-0.5296,-0.5296,-0.5264,-0.5264,-0.5263]}]]